Location: Biltmore Gardens
(41.6070°N, 83.4666°W)
Time: 13:50:05
(UTC+00:00)

Cosmos 841 Rocket - Pass Details

Date: 14 July 2020
Orbit: 747 x 772 km, 74.0° (Epoch: 04 August)

Event Time Altitude Azimuth Distance (km) Brightness Sun altitude
Rises 09:32:25 0° 336° (NNW) 3,208 6.9 -7.1°
Reaches altitude 10° 09:34:49 10° 333° (NNW) 2,282 6.1 -6.7°
Maximum altitude 09:39:52 58° 255° (WSW) 878 3.6 -5.9°
Drops below altitude 10° 09:44:56 10° 177° (S) 2,281 5.7 -5.2°
Sets 09:47:20 0° 173° (S) 3,206 6.4 -4.8°
